Location: Newark
(50.0306°N, 2.3272°E)
Time: 02:58:26
(UTC+00:00)

Vanguard 1 - Pass Details

Date: 18 December 2019
Orbit: 651 x 3832 km, 34.2° (Epoch: 23 January)

Event Time Altitude Azimuth Distance (km) Brightness Sun altitude
Exits shadow 01:22:23 34° 137° (SE) 5,119 13.4 -57.5°
Drops below altitude 10° 01:39:03 10° 92° (E) 6,705 14.5 -55.5°
Sets 01:44:30 0° 85° (E) 7,477 15.0 -54.9°
